Plymouth, NH

2:13 AM EDT on May 24, 2017 (GMT -0400)
Plymouth

Weather History for K1P1 - July, 2013

Change the Weather History Date:

Sunday, July 7, 2013

  Actual Average (KLCI) Record (KLCI)
Temperature  
Mean Temperature 73 °F -  
Max Temperature 84 °F 80 °F 94 °F (1993)
Min Temperature 62 °F 59 °F 50 °F (1990)
Cooling Degree Days 8    
Growing Degree Days 23 (Base 50)    
Moisture  
Dew Point 65 °F    
Average Humidity 78    
Maximum Humidity 96    
Minimum Humidity 47    
Precipitation  
Precipitation 0.01 in - - ()
Sea Level Pressure  
Sea Level Pressure 29.98 in    
Wind  
Wind Speed 1 mph (WNW)    
Max Wind Speed 7 mph    
Max Gust Speed -    
Visibility 8 miles    
Events Rain , Thunderstorm    
Averages and records for this station are not official NWS values.
T = Trace of Precipitation, MM = Missing Value Source: NWS Daily Summary

Daily Weather History Graph

Daily Weather History Graph

Search for Another Location

Airport or City:

Trip Planner

Search our weather history database for the weather conditions in past years. The results will help you decide how hot, cold, wet, or windy it might be!

Date:

Astronomy

Jul. 07, 2013 Rise Set
Actual Time 5:12 AM EDT 8:30 PM EDT
Civil Twilight 4:37 AM EDT 9:06 PM EDT
Nautical Twilight 3:51 AM EDT 9:52 PM EDT
Astronomical Twilight 2:54 AM EDT 10:49 PM EDT
Moon 4:48 AM EDT (7/7) 7:50 PM EDT (7/7)
Length of Visible Light 16h 29m
Length of Day
15h 18m
Waning Crescent, 0% of the Moon is Illuminated
Jul 7
Waning Crescent
Jul 8
New
Jul 15
First Quarter
Jul 22
Full
Jul 29
Last Quarter

Hourly Weather History & Observations

Time (EDT) Temp. Heat Index Dew Point Humidity Pressure Visibility Wind Dir Wind Speed Gust Speed Precip Events Conditions
12:15 AM 65.3 °F - 63.5 °F 94% 30.03 in 4.0 mi Calm Calm - N/A   Clear
12:35 AM 65.1 °F - 63.5 °F 94% 30.02 in 7.0 mi Calm Calm - N/A   Clear
12:55 AM 65.3 °F - 63.3 °F 93% 30.02 in 7.0 mi Calm Calm - N/A   Clear
1:15 AM 63.9 °F - 62.6 °F 96% 30.02 in 4.0 mi Calm Calm - N/A   Clear
1:35 AM 63.5 °F - 62.1 °F 95% 30.02 in 4.0 mi Calm Calm - N/A   Clear
1:55 AM 63.3 °F - 62.1 °F 96% 30.01 in 4.0 mi Calm Calm - N/A   Clear
2:15 AM 63.1 °F - 61.9 °F 96% 30.02 in 4.0 mi Calm Calm - N/A   Clear
2:35 AM 63.3 °F - 61.9 °F 95% 30.01 in 4.0 mi Calm Calm - N/A   Clear
2:55 AM 63.1 °F - 61.9 °F 96% 30.01 in 4.0 mi Calm Calm - N/A   Clear
3:15 AM 62.8 °F - 61.7 °F 96% 30.01 in 4.0 mi Calm Calm - N/A   Clear
3:35 AM 62.8 °F - 61.7 °F 96% 30.01 in 4.0 mi Calm Calm - N/A   Clear
3:55 AM 62.8 °F - 61.7 °F 96% 30.01 in 5.0 mi Calm Calm - N/A   Clear
4:15 AM 62.6 °F - 61.3 °F 96% 30.01 in 4.0 mi Calm Calm - N/A   Clear
4:35 AM 62.6 °F - 61.3 °F 96% 30.01 in 4.0 mi Calm Calm - N/A   Clear
4:55 AM 63.0 °F - 61.9 °F 96% 30.01 in 4.0 mi Calm Calm - N/A   Clear
5:15 AM 62.8 °F - 61.7 °F 96% 30.01 in 5.0 mi Calm Calm - N/A   Clear
5:35 AM 63.0 °F - 61.9 °F 96% 30.01 in 2.5 mi Calm Calm - N/A   Clear
5:55 AM 63.1 °F - 62.1 °F 96% 30.01 in 3.0 mi Calm Calm - N/A   Clear
6:15 AM 63.5 °F - 62.2 °F 96% 30.01 in 4.0 mi Calm Calm - N/A   Clear
6:35 AM 64.0 °F - 62.8 °F 96% 30.01 in 5.0 mi Calm Calm - N/A   Clear
6:55 AM 64.4 °F - 63.1 °F 96% 30.01 in 7.0 mi East 3.5 mph - N/A   Clear
7:15 AM 65.3 °F - 63.5 °F 94% 30.01 in 7.0 mi Calm Calm - N/A   Clear
7:35 AM 66.2 °F - 63.9 °F 92% 30.02 in 10.0 mi Calm Calm - N/A   Clear
7:55 AM 67.1 °F - 63.9 °F 89% 30.02 in 10.0 mi Calm Calm - N/A   Clear
8:15 AM 67.3 °F - 63.9 °F 89% 30.02 in 10.0 mi Calm Calm - N/A   Clear
8:35 AM 68.0 °F - 64.2 °F 88% 30.03 in 10.0 mi Calm Calm - N/A   Clear
8:55 AM 68.9 °F - 64.6 °F 86% 30.03 in 10.0 mi Calm Calm - N/A   Clear
9:15 AM 70.0 °F - 64.8 °F 83% 30.03 in 10.0 mi Calm Calm - N/A   Clear
9:35 AM 72.3 °F - 65.3 °F 78% 30.02 in 10.0 mi Calm Calm - N/A   Clear
9:55 AM 75.6 °F - 63.7 °F 66% 30.01 in 10.0 mi WNW 4.6 mph - N/A   Clear
10:15 AM 76.5 °F - 63.3 °F 64% 30.01 in 10.0 mi West 5.8 mph - N/A   Clear
10:35 AM 75.4 °F - 63.3 °F 66% 30.01 in 10.0 mi West 5.8 mph - N/A   Clear
10:55 AM 76.3 °F - 62.4 °F 62% 30.01 in 10.0 mi West 6.9 mph - N/A   Clear
11:15 AM 77.9 °F - 61.7 °F 57% 30.01 in 10.0 mi West 6.9 mph - N/A   Clear
11:35 AM 78.3 °F - 62.2 °F 58% 30.01 in 10.0 mi WNW 4.6 mph - N/A   Clear
11:55 AM 79.7 °F - 63.1 °F 57% 30.01 in 10.0 mi WNW 4.6 mph - N/A   Clear
12:15 PM 80.4 °F 81.6 °F 62.4 °F 54% 30.00 in 10.0 mi West 5.8 mph - N/A   Clear
12:35 PM 81.7 °F 83.3 °F 64.6 °F 56% 30.00 in 10.0 mi WNW 5.8 mph - N/A   Clear
12:55 PM 82.2 °F 83.5 °F 63.3 °F 53% 30.00 in 10.0 mi WNW 4.6 mph - N/A   Clear
1:15 PM 81.7 °F 83.2 °F 64.0 °F 55% 29.99 in 10.0 mi WNW 5.8 mph - N/A   Clear
1:35 PM 82.0 °F 83.4 °F 63.7 °F 54% 29.99 in 10.0 mi WNW 4.6 mph - N/A   Clear
1:55 PM 82.2 °F 83.2 °F 62.4 °F 51% 29.99 in 10.0 mi WNW 4.6 mph - N/A   Clear
2:15 PM 82.4 °F 82.9 °F 61.0 °F 48% 29.98 in 10.0 mi WNW 4.6 mph - N/A   Clear
2:35 PM 83.8 °F 84.3 °F 61.3 °F 47% 29.97 in 10.0 mi WNW 3.5 mph - N/A   Clear
2:55 PM 84.0 °F 84.9 °F 62.8 °F 49% 29.96 in 10.0 mi NNW 5.8 mph - N/A   Clear
3:15 PM 84.2 °F 85.0 °F 62.6 °F 48% 29.96 in 10.0 mi North 3.5 mph - N/A   Mostly Cloudy
3:35 PM 84.2 °F 84.8 °F 61.9 °F 47% 29.95 in 10.0 mi Calm Calm - N/A   Scattered Clouds
3:55 PM 84.0 °F 84.9 °F 63.0 °F 49% 29.94 in 10.0 mi Calm Calm - N/A   Clear
4:15 PM 82.4 °F 84.4 °F 66.0 °F 57% 29.95 in 10.0 mi Calm Calm - N/A   Mostly Cloudy
4:35 PM 81.7 °F 84.0 °F 66.4 °F 60% 29.95 in 10.0 mi Calm Calm - N/A   Overcast
4:55 PM 82.2 °F 84.7 °F 66.9 °F 60% 29.94 in 10.0 mi Calm Calm - N/A   Overcast
5:15 PM 82.8 °F 85.1 °F 66.4 °F 58% 29.93 in 10.0 mi West 3.5 mph - N/A   Mostly Cloudy
5:35 PM 82.9 °F 84.8 °F 65.5 °F 55% 29.93 in 10.0 mi West 3.5 mph - N/A   Scattered Clouds
5:55 PM 82.6 °F 84.5 °F 65.3 °F 56% 29.92 in 10.0 mi Calm Calm - N/A   Mostly Cloudy
6:15 PM 83.7 °F 85.5 °F 65.7 °F 54% 29.92 in 10.0 mi Calm Calm - N/A   Scattered Clouds
6:35 PM 81.3 °F 84.1 °F 68.2 °F 64% 29.92 in 10.0 mi Calm Calm - N/A   Clear
6:55 PM 79.0 °F - 70.5 °F 75% 29.92 in 10.0 mi Calm Calm - N/A   Clear
7:15 PM 77.5 °F - 70.9 °F 80% 29.93 in 10.0 mi Calm Calm - N/A   Clear
7:35 PM 77.2 °F - 71.4 °F 82% 29.92 in 10.0 mi Calm Calm - N/A Thunderstorm Clear
7:55 PM 77.9 °F - 70.7 °F 78% 29.92 in 10.0 mi Calm Calm - N/A   Scattered Clouds
8:15 PM 77.9 °F - 70.2 °F 77% 29.92 in 10.0 mi Calm Calm - N/A   Mostly Cloudy
8:35 PM 76.1 °F - 70.9 °F 84% 29.92 in 10.0 mi Calm Calm - N/A   Scattered Clouds
8:55 PM 75.6 °F - 70.3 °F 84% 29.94 in 10.0 mi Calm Calm - N/A   Scattered Clouds
9:15 PM 74.3 °F - 70.9 °F 89% 29.94 in 10.0 mi West 3.5 mph - N/A   Scattered Clouds
9:35 PM 73.6 °F - 70.5 °F 90% 29.95 in 7.0 mi Calm Calm - N/A Thunderstorm Clear
9:55 PM 73.4 °F - 70.2 °F 90% 29.95 in 10.0 mi Calm Calm - N/A Rain Light Rain
10:15 PM 72.7 °F - 70.0 °F 91% 29.95 in 10.0 mi Calm Calm - N/A Rain Light Rain
10:35 PM 72.5 °F - 70.2 °F 92% 29.94 in 7.0 mi Calm Calm - N/A   Clear
10:55 PM 71.8 °F - 69.8 °F 93% 29.95 in 7.0 mi Calm Calm - N/A   Clear
11:15 PM 71.6 °F - 69.8 °F 94% 29.96 in 7.0 mi Calm Calm - N/A Rain Light Rain
11:35 PM 71.6 °F - 69.8 °F 94% 29.96 in 7.0 mi Calm Calm - N/A Rain Light Rain
11:55 PM 70.9 °F - 69.3 °F 95% 29.94 in 5.0 mi NE 3.5 mph - 0.01 in Rain Light Rain